Alexandria, LA

6:17 PM CST on February 19, 2018 (GMT -0600)
Alexandria International

Weather History for KAEX - July, 2012

Change the Weather History Date:

Thursday, July 12, 2012

  Actual Average Record
Temperature  
Mean Temperature 75 °F 82 °F  
Max Temperature 78 °F 92 °F 107 °F (1901)
Min Temperature 71 °F 73 °F 64 °F (1905)
Cooling Degree Days 10 17  
Month to date cooling degree days 205 204  
Year to date cooling degree days 1394 1111  
Since 1 June cooling degree days 709 657  
Growing Degree Days 25 (Base 50)    
Moisture  
Dew Point 72 °F    
Average Humidity 91    
Maximum Humidity 100    
Minimum Humidity 82    
Precipitation  
Precipitation 0.41 in 0.15 in 1.50 in (1919)
Month to date precipitation 2.05 1.87  
Year to date precipitation 35.16 30.97  
Sea Level Pressure  
Sea Level Pressure 29.97 in    
Wind  
Wind Speed 4 mph (South)    
Max Wind Speed 13 mph    
Max Gust Speed 17 mph    
Visibility 8 miles    
Events Rain , Thunderstorm    
T = Trace of Precipitation, MM = Missing Value Source: NWS Daily Summary

Daily Weather History Graph

Daily Weather History Graph

Search for Another Location

Airport or City:

Trip Planner

Search our weather history database for the weather conditions in past years. The results will help you decide how hot, cold, wet, or windy it might be!

Date:

Astronomy

Jul. 12, 2012 Rise Set
Actual Time 6:14 AM CDT 8:16 PM CDT
Civil Twilight 5:47 AM CDT 8:44 PM CDT
Nautical Twilight 5:14 AM CDT 9:17 PM CDT
Astronomical Twilight 4:38 AM CDT 9:52 PM CDT
Moon 1:11 AM CDT (7/12) 2:55 PM CDT (7/12)
Length of Visible Light 14h 56m
Length of Day
14h 01m
Waning Crescent, 35% of the Moon is Illuminated
Jul 12
Waning Crescent
Jul 18
New
Jul 26
First Quarter
Aug 1
Full
Aug 9
Last Quarter

Hourly Weather History & Observations

Time (CDT) Temp. Dew Point Humidity Pressure Visibility Wind Dir Wind Speed Gust Speed Precip Events Conditions
12:53 AM 73.9 °F 73.0 °F 97% 29.94 in 10.0 mi Calm Calm - N/A   Clear
1:53 AM 73.9 °F 72.0 °F 93% 29.94 in 9.0 mi Calm Calm - 0.00 in   Partly Cloudy
2:53 AM 73.9 °F 72.0 °F 93% 29.95 in 9.0 mi Calm Calm - 0.01 in Rain Light Rain
3:53 AM 73.9 °F 73.0 °F 97% 29.96 in 9.0 mi Calm Calm - 0.02 in Rain Light Rain
4:53 AM 73.9 °F 72.0 °F 93% 29.96 in 8.0 mi Calm Calm - 0.04 in Rain Light Rain
5:53 AM 73.9 °F 72.0 °F 93% 29.94 in 8.0 mi Calm Calm - 0.01 in Rain Light Rain
6:53 AM 73.9 °F 73.0 °F 97% 29.94 in 8.0 mi Calm Calm - 0.01 in   Mostly Cloudy
7:53 AM 75.9 °F 73.0 °F 91% 29.96 in 9.0 mi Calm Calm - 0.00 in   Overcast
8:53 AM 77.0 °F 73.9 °F 90% 29.96 in 10.0 mi SE 3.5 mph - 0.00 in Rain Light Rain
9:53 AM 77.0 °F 75.0 °F 94% 29.98 in 5.0 mi SSE 4.6 mph - 0.02 in Rain Light Rain
10:53 AM 77.0 °F 75.9 °F 96% 29.98 in 3.0 mi SE 6.9 mph - 0.09 in Rain Light Rain
11:22 AM 78.8 °F 75.2 °F 89% 29.96 in 3.0 mi Calm Calm - 0.03 in Rain Rain
11:25 AM 78.8 °F 75.2 °F 89% 29.97 in 2.5 mi SW 4.6 mph - 0.05 in Rain Rain
11:32 AM 77.0 °F 75.2 °F 94% 29.97 in 3.0 mi SW 8.1 mph - 0.08 in Rain Rain
11:53 AM 75.9 °F 73.0 °F 91% 29.99 in 3.0 mi SW 6.9 mph - 0.08 in Rain Light Rain
12:00 PM 75.2 °F 69.8 °F 83% 29.98 in 10.0 mi SSW 4.6 mph - 0.00 in Rain Light Rain
12:07 PM 73.4 °F 69.8 °F 88% 29.98 in 10.0 mi Variable 3.5 mph - 0.00 in Rain , Thunderstorm Light Thunderstorms and Rain
12:33 PM 73.4 °F 71.6 °F 94% 30.01 in 4.0 mi SW 9.2 mph - 0.03 in Rain Light Rain
12:53 PM 73.9 °F 71.1 °F 91% 30.02 in 6.0 mi SW 10.4 mph - 0.05 in Rain Light Rain
1:53 PM 73.0 °F 70.0 °F 90% 30.01 in 6.0 mi West 6.9 mph - 0.06 in Rain Light Rain
2:53 PM 73.0 °F 68.0 °F 84% 30.00 in 9.0 mi WSW 4.6 mph - 0.00 in Rain Light Rain
3:53 PM 73.9 °F 68.0 °F 82% 29.98 in 10.0 mi WSW 4.6 mph - 0.02 in Rain Light Rain
4:53 PM 75.0 °F 69.1 °F 82% 29.99 in 10.0 mi Calm Calm - 0.00 in Rain Light Rain
5:53 PM 75.0 °F 70.0 °F 84% 29.98 in 10.0 mi SSE 4.6 mph - 0.00 in   Mostly Cloudy
6:53 PM 75.9 °F 70.0 °F 82% 29.97 in 10.0 mi ESE 8.1 mph - N/A   Scattered Clouds
7:53 PM 75.0 °F 70.0 °F 84% 29.96 in 10.0 mi SE 6.9 mph - N/A   Overcast
8:53 PM 73.0 °F 69.1 °F 87% 29.95 in 10.0 mi SE 6.9 mph - N/A   Mostly Cloudy
9:53 PM 72.0 °F 69.1 °F 91% 29.96 in 10.0 mi SE 5.8 mph - N/A   Clear
10:53 PM 72.0 °F 68.0 °F 87% 29.97 in 10.0 mi ESE 6.9 mph - N/A   Clear
11:53 PM 71.1 °F 69.1 °F 93% 29.98 in 10.0 mi SSE 3.5 mph - N/A   Clear